Location: Budapest
(47.4979°N, 19.0402°E)
Time: 06:06:04
(UTC+02:00)

Envisat - Pass Details

Date: 13 October 2017
Orbit: 764 x 766 km, 98.2° (Epoch: 22 October)

Event Time Altitude Azimuth Distance (km) Brightness Sun altitude
Exits shadow 20:16:07 59° 140° (SE) 883 3.0 -23.7°
Maximum altitude 20:17:02 77° 74° (ENE) 791 2.8 -23.9°
Drops below altitude 10° 20:22:08 10° 349° (N) 2,313 5.8 -24.7°
Sets 20:24:27 0° 348° (NNW) 3,244 6.6 -25.1°
